Tracking 19193 objects as of 24-Jun-2018
HD Live streaming from Space Station
objects crossing your sky now

FENGYUN 1C DEB

Track FENGYUN 1C DEB now!
10-day predictions


NORAD ID: 31157
Int'l Code: 1999-025BHK
Perigee: 759.5 km
Apogee: 908.5 km
Inclination: 98.6 °
Period: 101.4 minutes
Semi major axis: 7204 km
RCS: 0.0193 m2 (small)
Launch date: May 10, 1999
Source: People's Republic of China (PRC)
Launch site: Taiyaun Space Center, China (TSC)

Note: This is SATELLITE DEBRIS
aabbcc
Your satellite tracking list
Your tracking list is empty




NASA's NSSDC Master Catalog

Two Line Element Set (TLE):
1 31157U 99025BHK 18173.40538375 +.00000076 +00000-0 +53772-4 0  9998
2 31157 098.6285 226.5497 0103387 328.4841 087.4950 14.19562055582235
Source of the keplerian elements: AFSPC